Theta_e
337 337 332 332 337 343 342 342 342 341 341 342 343 343 343 343 344 343 341 341 341 338 335 334 334 332 329 330 334 338 339 338 339 338 339 339 339 339 339 339 340 340 340 340 341 340 341 340 338 334 330 326 323 321 320 322 325 329 333 336 338 338 338 339 340 341 341 338 336 335 336 337 338 339 338 337 336 334 330 329 330 332 336 340 340
336 339 334 331 334 339 342 342 342 342 342 342 342 343 343 343 344 343 342 341 341 339 336 336 337 333 330 333 336 338 338 337 338 337 338 337 336 336 336 337 337 338 339 339 339 339 340 340 338 334 331 328 326 324 321 320 321 324 328 332 335 336 337 338 339 340 339 338 335 333 333 334 336 336 336 335 335 330 326 325 325 324 328 336 339
336 342 336 332 333 336 341 342 342 343 342 343 343 343 343 343 344 342 343 342 341 340 338 338 338 335 332 334 336 337 337 337 337 337 336 335 334 334 335 336 337 338 338 338 338 339 340 340 336 332 330 329 329 327 324 322 322 322 322 326 331 333 335 337 338 339 338 338 336 334 333 333 334 335 333 332 331 327 324 322 323 320 322 331 336
337 341 337 333 333 335 338 341 342 342 342 343 343 343 343 343 343 342 342 342 341 340 340 339 337 335 333 333 336 337 337 337 337 337 335 334 333 332 334 336 338 338 337 338 338 339 340 339 337 333 331 329 329 328 326 325 325 324 323 323 325 329 333 336 338 339 338 338 337 337 336 335 332 332 330 328 327 324 323 322 322 321 320 326 332
336 340 338 333 332 335 336 339 340 342 342 342 342 342 343 343 342 342 341 341 341 340 340 338 335 336 335 332 334 336 337 337 337 337 335 335 334 332 333 335 337 338 338 338 339 339 339 338 336 334 331 329 327 326 326 327 326 323 323 325 323 323 328 334 338 338 337 335 335 338 338 336 332 330 329 326 325 324 324 324 322 322 322 325 330
335 339 339 334 332 335 335 338 339 341 342 340 341 342 342 342 342 341 340 341 341 341 339 336 336 336 336 335 334 334 335 336 335 335 335 335 335 333 333 335 337 338 338 339 339 339 338 337 335 334 332 329 327 326 327 328 328 321 316 321 325 324 323 327 333 333 333 332 334 338 338 337 335 335 334 330 329 329 328 328 327 325 324 325 329
334 337 339 336 332 334 334 336 339 340 340 339 340 340 341 341 342 341 340 341 340 340 338 336 336 336 337 337 336 335 335 335 335 335 334 335 334 333 333 335 337 338 338 338 339 338 337 335 333 332 331 330 328 327 328 329 328 320 311 311 319 326 325 324 327 329 330 333 335 338 338 337 337 337 338 336 335 335 333 334 332 329 327 324 326
334 337 339 337 333 333 333 334 338 340 339 339 339 339 339 340 341 340 340 339 339 339 337 336 336 336 337 338 337 336 336 336 336 336 336 334 333 332 333 335 337 337 338 338 338 337 335 334 332 331 330 330 329 329 330 328 320 311 306 304 309 319 326 326 325 327 330 334 336 339 338 337 337 337 337 337 338 337 336 336 334 332 331 327 324
335 337 337 338 334 332 333 333 336 339 339 339 339 339 339 340 339 339 340 338 338 338 336 337 336 337 338 338 338 336 337 337 336 336 337 334 332 332 332 335 337 337 337 338 337 336 334 332 331 330 329 327 329 331 327 317 307 302 301 301 303 310 320 326 325 325 329 333 335 337 337 337 336 335 336 336 338 337 336 335 334 334 332 330 328
336 337 337 338 334 332 333 333 336 337 339 339 337 338 339 339 338 339 340 338 338 338 336 336 336 337 338 338 338 337 337 338 337 336 337 335 332 332 334 334 336 337 337 337 336 335 333 332 330 330 328 325 326 326 314 303 300 300 300 300 301 303 312 319 323 325 327 331 333 334 336 337 335 335 336 337 336 335 334 334 333 333 332 332 332
336 337 339 338 335 333 332 334 336 336 338 338 336 336 337 338 337 338 339 337 338 338 336 335 336 338 338 337 337 337 338 338 338 337 337 335 333 332 334 335 336 336 336 336 335 333 332 331 329 329 328 323 318 311 301 299 300 300 300 300 300 300 307 315 321 325 327 329 331 333 335 335 334 335 336 337 335 332 332 332 332 333 333 333 333
335 337 339 340 336 333 331 333 335 335 336 336 337 336 336 336 336 337 337 336 337 337 336 335 337 338 338 336 336 337 338 338 338 338 337 335 334 332 333 336 336 336 335 335 333 333 331 329 328 328 325 315 306 301 298 300 299 300 300 300 300 299 306 316 320 323 327 330 332 332 334 334 334 335 336 336 335 333 332 332 332 333 334 334 333
334 337 339 340 337 334 332 332 334 335 336 336 337 336 335 335 335 335 334 334 336 337 336 336 337 338 337 336 336 337 337 338 338 338 337 335 334 332 332 334 335 335 335 334 333 332 330 329 327 327 323 308 300 299 299 299 299 300 300 300 301 300 305 314 320 322 326 329 332 333 333 334 333 334 334 334 334 334 333 332 332 333 334 334 334
331 337 339 339 339 336 333 332 333 334 336 336 336 336 336 335 335 335 333 333 335 336 336 336 337 336 336 336 336 336 337 338 338 338 337 335 334 332 332 332 333 333 332 332 332 331 330 329 327 328 322 304 299 299 298 299 299 299 300 300 300 300 302 308 316 321 325 328 331 332 333 333 333 333 333 333 332 332 332 332 332 333 334 335 335
328 333 337 339 339 338 334 332 332 333 335 336 336 336 336 336 336 336 334 333 335 335 336 336 336 335 334 335 336 337 337 338 338 338 337 335 334 333 332 332 332 332 331 331 331 330 329 328 328 328 317 300 299 298 298 299 298 299 299 300 300 301 301 303 309 315 322 326 329 331 332 332 332 331 330 330 330 330 330 331 331 333 333 334 334
332 332 335 338 340 339 337 334 333 333 335 336 336 336 336 337 336 336 335 334 334 335 335 335 334 334 335 334 335 337 337 337 338 338 337 336 334 334 333 332 332 331 331 330 329 328 328 327 327 325 313 299 299 298 298 298 299 300 299 300 300 300 300 301 303 310 319 323 326 329 330 331 330 329 328 328 328 328 328 329 330 331 332 332 332
335 334 334 336 339 340 338 337 335 334 335 336 336 336 336 337 336 336 336 335 334 335 334 334 333 334 335 334 334 336 336 337 338 338 337 336 335 334 333 332 332 332 331 329 327 327 327 326 325 323 314 301 298 298 298 298 299 299 300 300 300 300 301 301 301 307 314 318 322 325 328 329 329 328 327 327 326 326 326 327 328 328 330 330 330
332 335 334 334 337 339 340 339 337 336 335 336 336 336 336 336 336 336 336 335 335 335 334 333 333 334 335 334 335 335 336 337 337 338 337 336 335 334 333 333 332 331 329 327 326 326 326 325 324 322 314 302 297 298 298 298 299 299 300 300 300 300 300 301 301 303 307 310 313 317 323 326 327 327 326 326 325 325 324 324 325 326 326 327 328
331 334 335 334 335 338 340 339 339 338 337 336 336 336 336 336 336 336 336 335 335 335 334 334 335 335 335 334 335 335 336 337 337 337 337 336 335 334 334 333 332 329 328 327 326 325 325 325 324 320 312 300 297 298 298 298 299 299 299 299 299 300 300 301 301 301 303 305 306 308 315 321 324 325 325 325 324 324 323 321 321 322 323 324 325
332 335 335 334 335 336 339 339 339 339 338 337 337 337 337 337 337 337 336 335 335 336 336 335 335 336 336 335 335 335 336 338 337 337 337 336 335 334 334 333 331 328 326 327 325 325 324 324 323 319 309 299 298 298 298 298 298 299 299 299 299 300 300 300 300 301 300 302 302 302 309 317 321 323 323 323 322 321 319 318 317 319 321 322 322
330 333 334 335 335 336 336 337 338 338 339 338 338 338 337 338 338 337 337 336 335 336 336 336 335 335 336 335 335 335 335 337 337 337 337 336 335 334 333 332 331 327 325 325 325 324 324 323 322 318 307 298 298 297 298 299 299 299 299 300 300 300 300 299 299 300 299 300 300 299 305 312 317 320 320 319 319 315 311 314 317 319 320 320 321
325 327 329 332 333 334 334 335 336 337 338 339 338 338 338 338 338 338 338 337 336 337 337 336 335 335 335 335 335 335 335 336 337 337 336 336 335 334 332 331 330 328 325 324 324 323 323 322 321 317 306 298 298 298 298 299 299 300 300 300 300 300 300 299 299 299 299 299 299 299 302 307 312 318 318 316 316 312 307 311 317 320 319 318 318
322 322 322 325 327 330 332 332 333 335 336 338 338 338 338 338 339 339 338 338 337 337 337 337 336 335 335 335 335 335 335 335 336 336 336 336 335 334 331 329 330 328 324 323 323 323 321 321 320 316 304 298 298 297 298 299 299 299 300 300 299 300 299 299 299 299 299 298 298 298 300 303 308 316 318 316 315 310 308 312 315 318 317 316 317
319 319 319 320 323 325 327 328 330 332 334 335 336 337 338 338 338 338 338 338 338 338 338 337 336 336 335 334 333 334 336 335 336 336 335 335 335 333 331 330 330 328 324 323 323 322 321 320 319 313 302 299 298 298 298 299 299 299 299 300 299 299 299 299 298 298 298 298 298 298 298 299 302 310 316 317 315 307 306 312 316 317 317 318 319
318 318 318 318 320 321 322 325 328 330 332 333 334 335 336 337 338 338 338 337 338 338 338 338 337 336 336 335 333 334 336 336 336 336 335 335 334 332 331 330 329 327 325 323 322 322 321 320 317 310 302 299 297 297 298 299 299 299 299 299 299 299 299 299 298 298 298 298 298 298 297 298 298 303 311 316 314 305 305 313 318 319 319 319 319
317 318 320 319 319 319 321 323 325 328 330 331 333 334 334 335 336 336 337 338 338 338 339 338 337 336 335 335 333 333 336 336 336 336 335 335 333 332 331 330 329 328 326 324 322 321 321 320 316 309 303 299 297 297 297 298 299 299 299 299 299 299 299 299 298 298 298 298 298 298 297 297 298 298 307 318 314 306 310 316 318 319 318 318 318
313 315 317 319 320 320 321 323 324 326 327 330 332 333 334 333 333 334 334 336 337 338 339 338 337 335 334 334 333 333 336 336 336 335 335 334 333 332 331 330 329 328 326 325 323 321 320 319 316 310 304 300 298 297 297 298 299 299 299 299 299 299 298 299 298 298 298 298 298 298 298 297 298 296 304 318 318 312 316 318 318 319 318 318 318
312 313 314 316 318 321 323 323 324 325 326 329 331 332 333 333 333 332 332 333 336 337 338 337 336 334 333 332 331 333 335 335 335 335 334 333 332 332 331 330 329 328 326 325 324 322 320 318 316 312 305 301 298 297 297 298 299 299 299 299 299 299 299 298 299 299 298 299 299 298 298 297 297 296 300 314 320 317 318 318 318 319 318 317 318
311 312 313 314 316 319 322 324 324 324 325 328 329 331 332 334 334 333 332 333 335 336 336 337 335 334 333 330 329 333 334 333 334 334 334 333 332 331 330 330 328 327 326 324 324 322 320 318 317 314 308 303 299 297 298 298 299 299 299 299 299 299 299 299 299 299 299 299 299 299 299 298 297 297 298 308 319 319 319 319 318 318 318 318 317
309 311 313 314 316 317 321 324 325 325 325 327 328 329 331 333 333 333 333 333 333 334 334 334 333 333 333 330 329 332 334 333 333 334 333 332 332 331 330 329 328 326 325 324 324 322 320 318 317 316 311 305 300 297 298 298 299 299 299 299 298 298 298 299 299 300 300 299 300 299 299 299 297 297 297 303 315 319 319 319 318 318 317 318 317
308 311 313 315 316 317 320 324 326 326 326 327 327 329 331 332 333 333 333 333 333 333 333 333 333 332 332 330 329 330 333 333 334 334 333 332 332 331 329 328 327 326 325 324 324 322 320 318 316 315 312 307 301 297 297 298 298 298 299 298 298 297 297 298 299 299 300 299 300 299 299 299 298 297 297 301 310 317 319 318 318 318 318 318 317
308 310 313 315 317 317 318 322 326 328 327 327 328 329 330 331 333 333 333 333 333 333 334 333 333 332 332 331 330 330 330 331 332 333 333 332 332 330 329 327 326 325 325 324 323 322 320 318 316 316 314 310 306 301 298 299 299 298 298 298 297 297 297 297 298 299 299 299 299 299 299 299 298 297 297 299 305 312 317 317 317 317 317 317 317
307 310 313 315 317 319 319 321 324 327 328 328 329 329 330 331 332 333 333 333 332 333 333 333 332 332 332 332 332 331 331 331 331 332 332 332 331 330 329 327 326 325 324 324 323 322 320 318 317 317 317 313 311 306 300 300 299 298 297 297 297 297 297 297 297 298 299 299 299 299 299 299 298 298 297 299 302 308 314 316 316 317 316 316 317
307 310 312 313 316 318 320 321 324 327 328 329 329 330 331 331 332 332 332 332 332 332 332 332 332 332 332 331 331 331 331 331 331 332 332 332 331 330 329 327 326 325 324 324 323 321 319 318 317 318 318 315 313 308 302 300 300 299 297 296 297 296 297 297 297 297 298 299 299 299 299 299 298 297 297 298 301 306 311 313 313 315 315 315 315
307 309 310 311 313 316 319 321 323 325 327 327 328 329 329 330 331 331 331 331 330 331 331 331 331 331 331 331 330 330 330 330 331 331 331 331 330 329 328 327 326 325 324 323 322 321 319 317 317 317 317 315 313 307 302 301 300 298 296 296 297 296 296 296 296 297 298 299 299 299 299 299 298 298 297 297 298 303 309 311 311 311 312 314 315
306 307 308 309 312 314 316 318 320 323 324 325 326 327 328 328 329 329 329 329 329 329 329 329 329 329 330 330 330 330 330 330 330 330 330 330 329 329 328 327 326 325 324 323 321 320 318 316 316 316 316 315 312 305 301 301 299 297 296 296 297 296 296 296 296 297 298 299 299 299 299 299 299 298 298 297 297 299 304 308 308 307 309 313 314
304 306 308 309 311 313 315 316 318 320 321 322 323 324 325 326 326 327 327 327 327 328 328 328 328 327 328 328 328 329 329 329 329 329 329 329 329 328 328 327 326 325 323 322 321 319 318 316 316 315 315 314 311 305 302 300 298 297 297 297 296 296 295 295 296 296 297 298 299 299 299 299 299 298 298 298 297 297 300 302 304 305 307 312 314
303 305 306 308 310 312 314 315 316 317 318 319 320 321 322 323 324 324 325 325 325 326 326 326 326 326 327 326 326 327 327 328 328 328 328 328 328 327 327 326 325 324 323 322 320 319 317 317 316 315 314 313 311 307 303 300 298 298 297 297 296 295 295 295 295 295 296 297 298 299 299 299 299 298 298 298 297 297 298 299 300 304 305 308 313
301 303 305 306 308 310 312 313 314 314 315 316 317 318 319 320 320 321 321 321 321 322 323 323 323 323 323 323 324 324 325 326 326 326 326 326 326 326 326 325 324 324 323 321 320 319 317 317 316 314 313 311 309 307 303 300 298 298 297 297 296 295 295 295 295 295 295 296 296 297 298 299 299 299 298 297 297 296 297 297 298 300 300 303 311
300 302 304 305 306 308 310 311 312 313 314 314 314 315 316 317 317 318 317 317 317 318 318 318 319 319 319 319 320 320 322 322 323 323 323 323 323 324 324 324 323 322 322 321 320 320 319 317 316 314 312 310 307 304 301 299 298 297 297 296 296 296 296 296 295 295 295 295 295 296 296 298 298 298 298 297 297 296 296 296 296 297 296 299 310
299 300 302 303 304 305 307 307 308 310 311 312 312 313 314 314 314 314 314 313 314 314 314 314 314 315 315 315 315 316 316 317 318 318 318 319 320 320 320 320 321 321 321 321 320 320 319 317 315 313 311 309 306 303 300 298 297 297 296 296 296 296 296 296 296 295 295 295 295 295 295 297 297 297 298 296 296 295 295 295 295 295 294 297 306
297 298 299 301 302 304 304 305 306 307 308 308 309 310 310 310 310 310 311 310 310 310 310 310 310 310 310 310 310 311 312 313 313 313 313 314 315 316 316 317 317 317 317 317 317 317 317 316 313 311 309 307 305 303 300 298 297 296 296 295 296 296 296 296 296 296 296 296 295 295 295 295 296 296 296 296 296 295 295 295 295 295 294 294 298
296 297 298 300 301 302 303 304 305 305 306 306 307 307 307 308 308 308 308 308 307 307 306 305 305 305 304 304 305 306 307 308 309 309 310 310 310 311 312 312 313 313 314 313 313 313 314 313 312 310 308 305 303 301 300 299 297 296 295 296 297 298 297 296 296 296 296 296 296 295 295 295 295 295 295 295 295 295 295 295 295 295 294 294 293
295 296 297 298 299 300 301 302 303 304 304 305 305 305 305 306 306 306 306 305 305 304 304 303 303 303 302 302 302 302 303 303 304 305 306 307 307 308 308 309 309 309 310 310 310 310 310 310 309 309 307 303 302 301 300 298 297 297 296 295 295 295 299 297 294 295 296 296 296 295 295 295 295 295 295 295 295 295 295 295 295 294 294 293 293
294 294 294 295 296 297 299 300 301 302 303 304 304 305 305 305 305 304 304 303 303 302 302 302 302 302 302 302 302 301 301 301 301 302 302 303 304 305 305 306 306 306 307 307 307 308 308 308 307 307 305 303 302 301 300 298 297 297 297 296 295 295 301 298 293 295 295 294 296 295 295 295 295 295 295 295 294 294 294 294 294 294 294 293 293
293 293 293 293 294 295 296 298 299 300 301 302 303 304 304 303 303 302 301 300 299 298 298 299 300 301 301 302 302 301 301 301 300 300 300 300 301 302 302 303 303 304 304 304 304 305 305 306 306 306 305 304 302 300 299 298 297 297 296 296 296 296 299 296 295 298 296 294 295 295 295 295 295 296 295 295 294 294 294 294 294 294 293 293 293
292 293 293 293 293 294 295 296 297 298 299 300 301 302 301 301 300 299 298 297 296 296 297 298 299 299 300 300 301 301 301 301 300 300 300 299 299 299 300 300 300 301 301 302 302 303 302 303 303 303 303 303 302 299 298 298 298 297 296 296 296 295 295 295 297 299 298 297 295 294 295 295 295 295 295 294 294 293 293 293 293 293 293 293 292
292 292 293 293 292 293 293 294 295 296 297 298 298 299 298 298 297 296 296 295 295 295 296 297 297 298 298 298 299 299 299 300 300 300 299 299 299 299 299 299 299 299 299 299 300 300 300 301 301 300 300 300 300 298 298 298 297 296 297 296 296 295 294 294 295 295 296 298 297 295 294 294 294 294 294 294 293 293 293 293 293 292 292 293 292
292 292 292 292 292 292 292 293 293 293 294 296 296 296 296 296 295 295 294 294 294 294 295 296 296 296 296 296 296 297 297 298 298 298 298 298 299 299 299 298 298 298 298 298 298 298 298 299 299 299 299 299 298 298 297 297 297 296 297 296 296 296 295 294 294 294 294 295 297 299 295 292 293 293 293 293 293 293 293 293 293 292 292 292 291
291 291 291 291 291 291 292 292 291 291 292 293 294 294 295 295 294 294 293 293 293 293 294 294 293 293 293 293 294 294 295 295 295 295 296 297 297 298 298 298 298 298 298 297 297 297 297 297 297 298 298 298 298 298 297 297 297 296 296 296 295 295 294 294 294 294 295 293 295 296 293 291 293 294 294 295 294 293 293 292 292 292 292 292 291
290 290 290 290 290 290 290 290 290 290 291 292 292 293 293 293 292 292 291 291 291 292 291 291 290 290 290 290 290 291 291 292 292 293 293 294 295 296 297 298 298 298 297 297 297 296 296 296 296 296 297 297 297 297 297 297 296 296 296 295 295 295 294 294 294 294 295 294 294 294 292 292 292 293 294 295 294 294 293 292 293 292 292 292 291
Wind_Speed
20 18 25 26 25 24 21 21 20 19 19 18 18 16 16 16 15 14 14 13 12 12 11 11 10 9 9 9 12 12 12 11 12 11 11 11 11 10 10 9 8 9 8 7 8 10 10 10 9 8 10 11 11 11 11 12 13 15 15 14 13 11 11 10 10 11 10 9 10 10 11 10 10 10 9 8 8 8 8 8 8 10 11 10 9
22 20 25 27 26 26 23 20 20 20 20 19 19 17 16 16 15 14 14 13 13 12 11 10 9 9 10 10 11 11 11 11 11 11 11 12 11 11 10 9 8 8 7 6 7 8 9 10 10 9 10 11 11 10 10 11 11 12 12 13 12 11 10 9 9 10 9 9 9 9 10 9 9 9 8 7 7 8 7 7 8 9 10 10 9
20 21 25 28 27 27 24 22 21 20 21 20 20 19 17 17 16 15 14 12 12 12 11 10 9 9 10 10 11 11 10 11 10 10 10 11 11 10 9 9 8 6 6 5 6 7 8 9 9 8 9 9 10 9 9 9 9 9 10 11 11 10 9 9 9 9 8 8 8 8 7 7 7 8 7 6 6 7 7 8 8 9 10 10 9
20 22 25 28 28 27 26 24 22 22 21 21 21 20 19 18 17 16 15 13 11 11 10 10 9 9 9 10 10 10 10 9 9 8 9 10 10 8 8 9 7 6 5 6 6 7 7 7 6 6 7 8 9 8 8 7 7 6 6 8 9 9 8 8 8 8 7 6 7 7 6 5 5 6 6 6 6 6 7 8 9 10 10 10 9
19 20 25 28 29 28 27 25 23 23 23 22 22 21 20 19 18 17 16 14 12 11 10 10 10 10 9 9 10 10 10 9 8 7 8 8 8 8 8 9 7 5 6 7 7 7 7 6 4 4 5 7 7 7 7 5 4 3 3 4 6 8 7 7 7 6 5 4 5 6 6 5 5 5 5 6 6 6 7 8 9 10 9 9 9
18 19 23 27 29 28 27 26 24 24 24 24 23 22 21 20 19 17 16 15 14 12 11 11 11 11 9 9 9 10 10 9 9 7 7 7 7 7 7 7 6 6 7 8 8 6 6 4 2 3 5 6 6 5 4 2 1 1 1 4 5 6 7 7 7 5 3 2 5 6 6 6 5 5 5 5 6 6 7 7 8 9 9 9 8
16 18 21 27 29 28 27 27 25 24 25 25 24 23 22 21 20 18 17 16 15 14 13 13 12 12 10 9 8 8 8 8 8 7 6 6 6 7 7 6 6 6 7 8 7 6 5 3 2 3 5 6 5 4 3 1 2 2 3 5 7 8 8 7 7 6 4 4 7 8 7 6 5 4 4 4 5 5 6 6 7 8 8 8 7
17 18 20 25 29 28 28 27 26 25 24 24 24 24 23 22 21 19 18 17 16 15 14 15 14 13 11 10 10 8 8 7 7 7 6 5 6 7 7 6 6 7 7 7 7 5 4 2 1 0 4 6 6 5 3 3 3 4 4 5 7 9 10 8 7 7 5 6 9 9 7 6 4 3 2 3 5 5 5 6 5 6 7 7 6
18 18 19 23 27 29 28 27 27 26 24 24 24 23 22 21 22 20 19 18 17 16 15 16 15 14 12 11 10 9 9 9 8 7 7 6 6 7 8 7 6 7 7 7 6 4 2 2 1 1 2 4 5 4 3 3 3 3 4 5 6 9 11 10 8 7 7 8 9 9 7 6 3 2 3 4 5 5 5 5 4 4 5 6 5
18 18 19 21 25 29 29 28 27 26 24 23 24 23 21 20 21 20 18 19 17 16 16 16 16 14 13 12 11 10 10 10 9 9 8 6 7 8 8 7 6 6 7 6 4 3 2 2 2 2 2 4 4 4 2 2 2 2 2 3 5 8 11 11 10 8 8 8 9 9 8 6 4 3 4 4 5 5 4 4 2 3 3 4 5
17 18 18 18 22 28 29 28 28 27 25 24 24 24 22 20 21 18 17 18 17 17 17 17 16 15 13 13 12 12 12 11 10 10 9 8 7 8 8 7 7 7 6 5 4 3 1 1 1 1 2 3 2 2 2 3 3 4 3 4 5 7 10 11 11 9 8 9 10 10 9 7 6 5 5 5 5 4 3 3 2 3 3 3 4
17 18 18 17 19 26 29 29 28 27 26 25 25 24 23 21 21 19 17 18 17 16 17 17 16 15 14 13 13 13 13 12 12 11 10 9 8 8 9 9 8 7 7 6 5 2 1 1 2 2 3 2 0 2 4 5 5 4 4 4 5 7 10 11 11 10 9 10 11 11 10 9 7 6 5 5 5 4 3 2 2 2 3 3 4
17 17 17 17 18 23 28 29 28 28 27 26 25 25 24 23 22 20 19 19 18 17 16 16 16 15 15 14 14 13 13 13 14 13 12 10 10 9 9 9 9 8 8 7 6 5 4 5 5 4 5 3 1 4 6 6 5 5 4 4 4 6 9 11 11 11 10 11 12 12 11 10 9 7 5 4 4 4 3 3 2 2 4 5 6
16 17 17 17 17 21 26 28 29 28 27 26 26 25 25 24 22 21 21 20 19 19 18 17 16 16 15 15 14 13 13 14 15 14 13 12 11 10 10 10 9 9 9 8 8 7 8 8 7 8 7 3 3 5 6 6 6 6 5 5 5 5 7 10 11 11 11 11 12 12 11 10 10 7 5 4 3 3 3 3 3 3 4 5 6
15 16 17 17 17 19 23 26 28 28 28 27 26 26 26 24 22 21 21 21 21 21 20 19 19 17 16 16 15 14 14 14 15 14 14 14 12 11 11 10 9 10 10 9 7 7 9 8 7 9 6 3 4 5 6 6 6 6 6 6 5 6 6 8 11 11 11 11 11 11 11 10 10 7 5 4 3 3 3 3 4 4 4 4 5
15 15 16 17 17 18 21 24 27 28 29 28 27 27 26 26 24 22 21 21 21 21 21 21 20 19 18 18 17 16 15 15 16 15 15 14 13 12 11 10 10 9 8 7 6 6 6 7 8 9 5 3 4 6 6 6 6 5 5 5 5 6 6 8 9 10 11 11 11 10 10 10 10 8 6 5 4 3 4 3 3 3 4 4 3
16 16 16 16 17 18 20 23 25 27 28 29 28 28 28 27 26 24 22 22 22 22 21 21 21 20 19 19 18 17 16 15 17 17 16 15 13 12 11 11 10 8 6 5 7 7 6 8 10 9 5 3 4 6 6 6 6 5 5 4 5 5 6 6 7 8 9 9 10 10 10 10 9 8 6 5 4 3 4 4 3 3 4 4 3
16 17 17 17 18 18 20 22 24 26 28 29 29 29 28 28 27 26 25 24 23 22 22 21 21 20 20 20 19 19 17 16 17 18 17 17 14 13 12 11 10 8 7 7 9 9 8 11 11 10 7 4 5 6 6 6 6 5 5 4 5 5 5 6 6 6 7 7 7 8 10 10 9 9 7 5 4 3 3 4 4 3 4 4 4
16 18 18 18 19 19 21 22 24 26 28 29 30 30 29 29 29 27 26 25 24 23 23 22 22 21 20 20 20 19 18 17 18 19 18 17 15 14 13 12 10 7 8 11 11 10 10 13 11 10 8 6 7 7 7 7 6 5 5 5 5 4 4 5 5 5 5 5 6 6 9 10 10 10 8 6 5 4 3 3 4 4 3 4 4
16 18 19 19 19 20 21 22 24 26 28 29 30 30 30 30 29 28 28 27 26 25 24 23 23 22 21 21 21 20 19 18 19 20 20 18 16 16 14 12 10 7 10 14 13 12 12 14 13 11 8 8 9 8 8 8 7 6 5 5 4 4 4 4 4 4 4 5 6 6 8 10 9 9 7 6 6 5 4 4 3 3 3 3 3
17 19 20 20 21 21 22 22 24 26 27 29 30 30 30 30 30 29 29 28 28 27 25 25 24 23 22 22 22 22 21 20 20 21 21 19 17 17 15 13 10 9 13 14 14 13 13 14 13 11 10 10 9 9 8 8 7 6 5 5 4 4 3 3 3 4 5 5 5 6 8 9 8 8 6 6 6 6 6 5 3 2 3 3 3
18 19 20 21 22 23 23 23 24 25 27 28 30 30 30 30 30 30 29 29 29 28 27 26 25 24 23 23 23 23 22 21 22 22 22 21 19 18 16 13 12 11 13 15 15 13 14 15 14 13 12 11 10 10 9 8 8 7 7 6 5 5 4 4 4 5 5 5 5 6 8 9 8 6 5 5 4 4 4 4 3 3 2 3 3
18 19 19 20 22 23 24 25 25 25 26 28 30 30 30 30 30 30 30 30 29 28 28 27 25 24 24 23 23 23 23 23 23 23 23 22 20 18 16 14 14 13 13 15 15 14 15 15 13 14 14 12 12 11 11 10 9 9 8 8 7 7 6 6 6 6 5 5 6 6 7 8 8 6 5 4 4 4 4 4 4 4 2 2 2
20 18 17 19 21 22 23 24 25 25 26 28 29 30 30 30 31 31 31 30 30 29 28 28 26 24 23 23 23 24 24 23 23 24 23 22 20 18 17 16 15 14 13 15 16 15 15 15 13 15 15 14 13 12 12 11 10 10 9 9 8 7 6 6 6 6 6 6 6 7 7 8 8 7 5 4 4 5 5 5 4 4 3 2 3
19 17 18 19 20 21 23 23 24 25 25 27 28 29 30 30 30 30 31 31 31 30 29 28 27 25 24 23 23 23 24 24 24 24 23 22 20 19 19 18 16 15 15 16 17 17 17 17 17 17 15 15 14 13 13 12 11 11 10 9 8 7 6 6 6 5 5 5 6 6 7 7 8 8 6 5 4 5 5 5 5 4 3 3 3
17 17 19 19 19 20 21 22 23 23 24 26 26 27 28 29 30 30 31 31 31 31 30 29 27 26 25 24 24 24 25 25 25 25 25 24 23 22 21 20 18 17 17 17 18 19 19 20 20 18 17 16 15 14 13 12 11 10 10 8 7 6 5 5 5 5 5 5 5 5 6 6 7 8 7 5 4 4 5 5 5 5 4 4 4
11 13 16 18 19 20 21 22 23 23 23 24 25 26 27 27 28 29 30 30 31 31 30 29 28 27 26 25 24 24 26 26 26 26 26 25 24 24 22 21 20 19 19 18 19 21 22 22 22 20 18 17 16 15 14 13 12 10 9 8 7 6 5 5 5 4 4 4 4 5 5 6 6 7 6 5 5 4 5 5 5 5 5 5 4
9 9 10 12 15 17 21 23 22 22 22 23 24 25 26 26 26 27 28 29 31 31 31 30 29 28 27 26 24 25 27 27 27 27 26 25 24 24 23 22 22 21 20 20 20 22 23 23 23 21 19 18 17 16 15 14 12 11 9 8 7 6 6 5 5 5 5 4 4 4 5 5 6 7 6 6 6 5 5 6 6 6 6 6 5
16 14 11 8 7 10 14 20 22 21 22 22 23 24 25 25 25 26 26 27 29 30 31 30 29 28 27 26 24 25 27 27 27 27 26 25 24 24 24 24 23 22 21 21 22 22 24 24 24 23 20 18 18 17 16 15 13 11 11 9 8 8 7 7 7 6 6 6 5 5 5 5 6 7 7 7 7 7 7 7 6 7 7 6 6
21 18 14 9 4 4 7 13 18 19 21 22 22 23 24 25 25 25 25 26 27 27 27 27 27 27 27 26 25 25 27 27 28 27 26 26 25 25 25 24 24 23 22 22 22 22 24 25 25 25 21 19 19 18 17 15 14 13 12 11 10 9 9 9 8 8 8 7 6 6 5 6 6 6 7 7 8 8 7 7 7 8 7 7 7
22 20 19 14 7 2 3 7 13 17 19 19 20 21 22 23 24 24 25 25 25 25 25 25 25 25 24 24 24 25 27 27 27 27 27 26 26 26 25 25 24 23 22 22 21 22 23 25 26 25 23 21 19 18 17 16 15 14 14 13 12 11 11 10 10 9 9 8 8 7 6 6 6 7 8 9 9 9 8 8 8 8 8 8 8
22 22 21 18 12 5 1 3 9 13 16 17 18 19 20 21 22 23 24 24 24 24 24 24 24 23 23 23 23 25 27 27 27 27 27 27 27 26 26 25 25 24 23 22 21 21 23 25 26 25 23 21 20 19 18 17 17 16 15 14 14 13 13 12 11 10 10 9 8 8 8 7 7 8 9 10 11 11 10 8 9 10 11 11 10
22 21 20 20 18 12 6 0 4 9 13 15 16 17 18 19 19 20 20 21 21 22 23 23 22 22 22 22 22 24 26 27 28 28 28 28 27 27 27 26 25 24 23 21 21 21 22 24 25 24 24 23 22 21 21 20 19 19 17 16 16 15 14 13 12 12 11 11 10 9 9 9 9 9 10 11 11 12 12 11 13 15 14 14 12
20 20 20 21 21 18 13 7 1 4 8 11 12 13 14 15 16 16 16 17 18 19 20 20 20 20 21 21 22 22 24 25 27 28 28 28 28 27 27 26 25 24 22 21 21 21 22 24 24 24 24 23 22 23 23 22 21 20 19 18 17 16 15 15 14 13 13 12 12 12 11 10 10 10 11 12 12 13 14 14 16 16 14 15 12
19 20 21 21 20 19 18 15 11 6 2 3 6 7 8 9 10 10 10 12 13 15 17 17 18 19 20 21 21 22 22 24 25 26 27 27 28 27 27 26 25 24 22 21 21 21 22 23 24 24 23 23 21 22 24 23 22 22 21 20 19 18 17 17 16 15 15 15 15 14 13 12 12 11 11 13 14 14 16 16 16 15 14 16 12
21 21 21 21 21 21 20 19 18 15 13 9 5 2 1 2 3 4 4 5 7 11 13 14 15 16 17 19 20 21 22 23 24 25 26 27 27 28 27 26 25 24 22 21 21 21 22 23 23 23 23 23 21 22 23 24 23 23 22 21 20 20 19 19 18 17 16 17 17 17 15 14 13 13 12 13 14 16 17 17 16 15 14 16 14
23 23 23 23 24 23 21 21 21 19 17 15 12 11 9 6 5 4 3 2 1 3 5 7 8 9 11 14 16 19 21 23 24 25 25 26 27 27 27 26 25 24 22 21 21 21 22 23 23 23 23 23 22 23 24 24 24 23 22 22 21 21 21 20 18 18 19 19 19 18 17 17 15 13 13 14 15 16 17 17 17 16 15 17 16
24 25 25 25 25 24 23 22 21 20 18 16 15 14 13 13 12 11 10 9 8 5 3 1 0 2 4 5 8 12 17 20 22 24 24 25 25 26 26 25 24 23 22 21 21 21 22 23 23 23 23 23 23 24 25 25 24 23 22 22 22 22 21 20 19 19 20 21 21 20 19 18 16 15 15 16 16 17 18 18 18 18 17 18 18
26 26 26 26 26 25 24 23 22 20 18 17 15 13 12 13 13 13 14 14 12 11 10 9 8 7 6 5 3 4 8 12 15 17 20 21 22 23 24 23 23 23 22 21 21 21 22 23 24 24 24 24 24 24 24 24 23 22 22 21 21 21 21 20 20 21 22 22 22 21 21 20 18 18 18 17 17 17 18 19 19 19 19 19 20
27 27 27 27 27 26 25 25 24 20 18 18 17 16 15 14 13 13 14 16 14 13 13 13 13 12 12 11 9 8 5 4 6 8 11 15 18 20 21 22 22 22 22 22 22 23 24 25 25 25 25 24 24 23 22 22 22 20 19 20 19 19 20 20 20 21 22 22 22 21 21 21 21 21 20 18 18 18 19 19 19 20 19 20 22
29 29 29 29 29 28 27 28 25 22 21 20 20 19 19 18 17 17 17 17 16 14 15 15 14 13 12 12 11 11 10 9 9 8 7 7 10 13 16 18 19 20 21 23 24 25 25 26 26 25 24 24 24 23 22 21 18 16 14 16 18 19 19 19 21 23 24 23 22 22 22 22 23 24 22 20 20 20 19 20 20 20 20 21 23
29 29 30 29 29 29 29 28 26 24 24 23 21 21 20 19 18 18 17 16 17 17 17 16 14 13 12 12 11 10 9 9 10 11 12 11 10 9 10 12 15 18 20 22 23 24 25 25 25 24 23 24 24 23 23 20 16 14 10 8 11 16 18 20 23 24 24 23 22 23 24 24 25 25 24 22 22 21 21 20 20 21 21 22 23
28 29 29 29 29 29 28 27 26 25 25 23 23 23 21 19 18 18 16 17 18 18 17 17 15 14 14 13 12 10 8 7 7 8 9 11 12 12 11 11 12 14 17 19 20 21 23 24 24 24 23 23 23 22 23 23 19 14 7 4 4 6 10 17 25 28 25 24 24 25 25 26 27 25 25 25 24 23 22 22 22 23 22 22 23
29 29 29 29 29 28 27 26 25 24 24 23 23 23 22 21 21 20 18 18 18 16 16 17 16 17 18 17 16 14 12 10 8 7 7 8 9 10 11 11 12 12 13 15 17 19 20 22 23 24 23 21 21 22 24 26 25 17 7 2 1 0 4 9 16 24 27 27 27 27 27 27 27 26 26 26 26 25 24 24 24 24 24 24 23
28 28 28 28 28 27 26 25 25 24 23 22 21 20 20 19 19 18 17 18 18 19 19 19 18 17 18 18 17 17 17 15 14 12 10 9 8 9 9 10 11 11 11 12 14 17 18 20 21 23 24 22 21 23 24 25 29 28 17 5 1 2 4 3 5 12 21 27 29 28 28 29 28 27 27 28 28 27 26 26 26 25 25 25 25
27 26 27 27 28 28 27 26 26 25 24 23 20 19 19 19 18 19 20 20 21 22 22 21 20 18 17 14 13 14 15 16 16 15 14 12 11 10 10 9 10 11 11 11 11 12 15 18 20 21 23 24 23 22 22 24 28 33 31 20 12 7 3 1 1 4 9 20 28 29 29 30 30 29 29 29 29 29 29 28 28 27 27 27 27
25 25 27 28 29 29 28 28 28 27 25 24 22 21 22 22 22 23 23 22 21 20 20 20 20 18 16 15 14 13 12 12 12 13 13 13 13 12 11 11 11 11 11 11 11 11 12 14 18 20 21 23 24 22 22 24 25 29 34 34 29 20 12 7 3 3 5 9 19 27 30 30 29 30 30 32 31 30 30 30 30 30 29 29 28
23 26 28 28 29 29 29 29 28 28 26 25 24 24 25 24 24 24 24 23 22 21 19 18 18 16 16 17 16 15 14 12 11 11 11 11 11 12 12 13 12 12 13 12 12 12 12 12 14 17 18 20 22 23 24 25 23 24 29 34 36 33 27 20 13 8 4 4 8 16 25 30 30 30 31 33 34 33 33 32 32 32 31 30 30
23 25 26 27 27 28 28 28 29 28 27 27 28 28 27 27 26 26 26 25 23 22 21 20 20 19 19 19 18 17 16 14 13 12 12 11 11 10 10 11 12 13 14 14 13 13 13 13 13 15 16 18 19 21 24 25 25 25 26 28 30 32 32 30 24 17 9 7 5 4 12 20 23 30 36 35 35 36 36 35 33 32 32 32 32
22 23 24 25 26 27 27 28 28 28 27 28 29 30 29 29 29 29 28 27 26 25 25 26 26 25 25 25 23 22 20 18 17 16 14 13 12 11 10 10 10 11 12 13 13 13 13 13 13 14 15 16 18 19 21 24 26 28 28 26 25 24 23 22 22 21 16 11 8 6 9 12 13 24 34 38 39 39 38 36 35 34 34 34 34
21 22 23 24 25 26 26 28 28 27 27 28 29 30 30 30 30 29 29 28 27 27 28 29 29 29 29 28 27 27 26 25 24 22 21 18 15 13 11 10 10 11 12 13 14 15 15 15 14 14 14 15 16 17 19 21 23 26 28 29 28 25 22 18 19 22 18 12 9 8 11 14 14 20 27 32 37 40 40 39 38 38 37 36 36
Wind_Direction
195 194 192 187 182 176 177 174 171 174 169 169 167 171 169 165 166 167 168 166 160 159 165 167 168 164 160 149 143 136 136 137 134 134 129 131 126 121 116 110 106 103 104 108 119 115 108 102 98 94 89 85 83 80 76 74 74 78 83 91 99 102 107 112 116 117 113 107 100 100 102 98 95 93 95 94 87 76 74 81 80 85 87 83 76
188 191 195 190 187 180 178 177 174 174 170 169 169 173 170 169 169 167 168 167 165 161 168 171 165 160 158 150 144 141 141 142 139 140 137 139 134 130 125 119 114 112 119 120 120 118 117 114 105 96 92 89 87 85 83 79 77 80 86 93 98 99 103 107 113 118 115 108 102 101 103 102 98 95 96 93 86 78 80 88 86 84 84 82 80
180 186 196 192 190 185 180 178 177 176 172 171 171 174 172 173 173 171 169 169 169 165 170 169 161 158 157 152 148 146 144 146 143 144 142 141 136 132 129 123 121 126 135 124 118 123 124 119 107 95 96 94 90 88 88 85 82 81 86 94 100 102 103 106 112 116 111 102 99 97 98 102 102 97 95 92 85 80 83 86 86 86 86 84 80
179 182 192 194 192 189 184 181 179 177 176 173 173 175 174 175 175 175 173 173 174 172 175 168 162 157 158 157 152 151 147 149 147 148 149 147 142 136 139 134 131 140 139 128 126 128 123 122 116 102 105 104 100 97 95 90 85 86 89 96 105 111 112 112 115 117 112 103 100 96 90 93 101 100 97 93 87 83 82 81 80 81 85 87 83
178 180 188 193 192 192 188 184 182 179 178 176 176 177 176 176 177 179 176 174 175 177 179 168 161 159 162 160 156 157 154 156 155 154 157 156 150 143 152 148 142 146 142 136 132 129 122 131 138 122 126 122 116 110 106 95 82 90 109 121 118 121 125 125 129 128 124 115 113 108 97 94 96 96 99 97 89 82 75 73 74 73 80 87 88
178 179 187 193 193 193 192 188 185 182 181 180 179 178 179 180 181 182 179 176 178 178 178 170 163 164 164 161 160 160 159 162 164 165 166 167 159 154 165 160 148 148 147 140 132 132 125 135 153 130 148 146 137 134 131 114 66 45 190 185 164 149 142 142 147 147 150 139 134 130 118 112 108 106 106 103 94 84 74 67 65 65 70 81 91
183 179 186 192 194 194 193 190 188 187 184 184 183 183 183 183 183 183 181 180 181 181 178 170 167 170 166 166 168 164 166 166 168 171 173 180 169 166 178 163 148 155 153 142 132 138 133 127 106 110 160 169 165 167 184 232 287 283 250 216 200 181 164 160 164 161 152 143 145 143 135 126 121 121 120 109 100 86 80 77 67 63 63 68 83
187 184 187 192 196 196 194 192 189 191 188 187 187 187 187 186 187 185 185 184 183 184 179 173 172 174 171 174 175 173 176 175 177 178 179 192 179 177 186 165 157 164 152 140 133 139 135 109 15 3 196 187 184 191 206 250 277 274 255 228 210 194 185 181 179 173 152 144 149 148 143 132 120 120 124 116 110 100 92 92 79 69 61 59 71
188 188 189 193 198 197 196 194 192 193 191 191 191 191 189 188 190 187 188 186 184 186 181 176 176 176 178 181 182 182 182 181 184 183 186 193 184 181 184 171 168 162 145 142 132 123 109 52 355 349 252 221 208 210 217 251 263 259 247 223 209 195 192 192 191 185 162 147 146 146 145 135 124 110 107 121 126 119 105 100 88 67 56 59 73
190 189 191 194 198 198 198 196 195 195 192 193 194 194 191 191 194 190 189 188 185 189 183 178 179 179 184 186 187 189 187 186 185 186 188 183 175 173 175 174 170 152 142 146 133 117 90 58 56 70 292 265 238 230 222 211 190 191 201 193 194 188 188 191 192 187 169 154 148 147 146 141 134 111 105 121 129 124 117 109 76 46 53 71 86
191 190 191 193 198 200 200 198 198 198 196 197 197 197 194 194 196 191 189 189 187 191 186 181 181 183 188 190 191 195 193 190 187 185 185 177 167 168 171 168 164 154 154 156 147 149 102 75 89 97 268 275 240 216 169 144 141 147 152 162 173 177 177 181 185 180 167 156 153 152 149 148 136 119 116 116 112 110 111 104 78 72 91 106 110
192 193 192 192 197 201 203 201 200 200 200 200 200 200 198 197 197 194 191 190 189 192 188 184 185 188 192 192 194 201 200 193 189 185 183 177 167 176 177 168 170 169 171 167 162 187 242 216 176 171 246 278 128 143 133 134 135 137 141 151 159 169 172 174 180 176 165 154 152 152 152 150 134 125 124 113 102 94 90 95 112 136 151 158 143
194 197 195 193 195 201 204 204 203 202 203 203 203 202 202 202 201 200 198 193 189 192 192 190 191 194 196 194 197 205 207 199 193 186 185 183 175 185 185 178 187 192 194 190 193 209 213 209 199 232 265 273 136 134 134 134 135 139 141 147 152 165 172 175 179 176 169 159 155 155 157 154 141 135 133 122 112 102 100 105 119 163 182 171 154
198 200 200 197 195 200 204 207 206 204 205 205 206 205 204 205 205 204 202 196 191 192 194 196 197 198 199 197 199 209 215 206 196 189 188 191 186 190 196 194 197 207 219 222 227 234 228 224 231 259 266 230 154 140 138 140 141 145 147 151 152 156 170 180 183 182 176 165 160 160 162 160 151 144 141 137 124 117 119 115 120 137 163 165 152
208 206 205 203 199 199 203 208 210 208 208 208 208 207 206 207 208 208 205 200 196 194 195 198 198 197 200 199 202 211 219 212 199 194 195 196 195 197 204 208 209 217 228 233 245 250 244 241 239 252 246 175 154 149 144 145 147 152 154 154 153 152 163 176 183 185 180 172 166 164 165 164 154 149 157 148 126 138 147 145 146 139 145 158 154
214 216 213 209 204 201 203 207 211 212 211 211 211 209 208 209 210 211 208 204 201 200 199 199 198 196 199 199 204 213 220 217 203 195 199 200 199 202 206 212 218 228 231 233 243 233 236 235 223 235 226 161 160 154 147 150 153 158 159 152 148 154 164 172 180 183 180 177 174 170 168 166 155 148 161 155 133 147 155 153 156 159 166 164 152
212 219 220 218 212 208 206 207 211 214 214 214 214 213 211 211 212 213 211 209 205 205 204 201 201 199 201 201 204 213 219 218 205 197 203 205 203 205 209 215 222 232 234 237 236 221 226 232 227 240 236 174 166 158 152 156 159 163 158 151 148 156 168 174 181 186 184 181 182 183 176 172 162 147 147 156 152 152 155 155 162 184 192 193 190
211 218 224 226 220 215 212 210 210 213 216 216 216 216 215 214 214 215 213 212 209 209 208 205 205 204 205 206 207 213 218 217 208 205 208 209 210 212 215 221 229 238 242 238 224 211 226 239 239 243 232 188 171 164 160 163 166 169 162 157 159 166 174 175 184 192 192 184 183 190 187 182 175 162 151 151 152 143 152 160 166 189 201 208 217
212 217 222 228 226 222 218 216 214 212 215 216 217 218 218 217 217 217 215 214 212 211 211 210 209 208 209 211 212 215 218 216 210 211 211 213 218 221 223 224 236 243 230 227 215 197 215 236 240 235 221 189 177 169 167 170 170 171 167 166 170 178 178 175 184 189 193 191 184 186 188 184 182 182 173 163 160 155 168 186 187 196 202 212 223
213 217 221 226 227 226 223 221 219 216 216 217 218 219 220 220 219 218 217 216 214 213 214 215 214 212 213 213 214 217 219 217 212 212 212 217 222 227 230 230 242 235 214 221 217 204 212 230 235 230 216 191 180 173 173 172 172 172 170 174 178 186 181 178 184 184 187 190 187 183 185 183 185 193 194 199 207 210 226 232 223 210 208 215 219
216 219 222 225 226 228 229 226 224 221 220 219 220 221 221 221 221 220 219 218 217 216 216 217 218 216 217 217 215 217 219 219 216 215 215 218 224 231 234 236 247 233 215 220 221 213 214 227 232 228 215 192 179 176 178 176 175 177 179 183 187 190 186 183 184 184 185 187 188 183 186 187 186 191 199 212 224 235 239 229 223 209 210 214 209
222 224 226 227 228 229 231 231 229 226 224 222 223 223 223 222 222 222 221 221 219 219 219 220 221 219 220 220 218 218 220 221 219 218 219 220 226 231 233 238 247 237 223 225 226 217 215 228 232 225 214 189 180 180 182 184 182 184 187 190 192 191 186 182 187 189 190 192 191 187 188 188 183 181 194 204 210 227 227 206 192 185 204 210 200
229 229 233 232 233 233 232 233 232 230 227 225 226 225 225 224 223 223 223 223 222 222 223 224 225 223 222 222 222 220 221 222 221 221 221 223 226 231 237 243 244 237 229 229 229 221 217 229 227 216 208 189 184 185 187 190 188 189 189 190 190 189 184 181 188 191 192 193 192 195 194 192 185 173 179 186 192 206 194 183 178 176 192 185 167
239 240 244 240 237 237 237 237 236 233 230 228 228 228 228 226 225 225 225 224 224 224 225 227 228 228 225 224 225 223 223 223 223 223 222 224 226 231 241 243 238 233 231 230 231 225 217 222 220 209 201 192 189 189 193 194 191 192 192 192 191 187 182 180 188 188 189 193 192 197 200 202 195 183 185 185 195 211 192 174 166 164 163 148 154
255 248 246 243 240 241 241 240 238 235 233 231 230 230 230 228 226 226 227 226 226 225 225 228 229 230 228 226 227 225 224 224 224 223 222 224 226 230 234 232 232 232 231 230 231 228 220 221 225 213 199 194 193 193 199 200 196 196 195 195 193 187 183 185 189 189 192 193 192 198 203 207 204 195 192 190 208 215 191 172 162 162 162 160 168
281 266 257 253 247 243 243 240 239 237 237 237 234 234 233 232 230 228 228 228 228 226 226 227 228 230 229 227 227 225 224 224 223 223 222 223 225 227 227 228 231 233 232 233 231 229 225 225 230 220 202 196 195 196 202 204 202 201 201 201 200 192 187 194 195 197 202 200 200 201 206 209 212 207 192 188 214 205 179 172 169 172 177 176 175
309 295 287 275 258 247 243 239 238 238 238 239 237 236 236 235 235 233 230 228 228 228 228 229 230 231 230 228 227 225 224 224 223 223 222 221 223 225 227 230 234 235 235 235 233 230 229 229 233 227 208 200 199 199 203 206 205 205 208 208 207 202 196 203 209 211 215 216 214 210 213 214 214 213 196 186 206 200 178 181 180 186 193 184 181
21 356 329 303 279 260 247 240 239 240 240 239 238 239 239 238 238 238 234 230 228 229 230 231 233 234 233 231 228 226 225 225 225 223 222 223 225 229 232 235 236 237 236 237 236 233 231 230 233 231 215 206 204 202 206 209 209 209 212 213 214 218 215 216 224 230 233 236 233 226 222 222 218 217 208 188 198 206 193 195 198 199 202 193 191
32 23 8 341 306 279 258 245 241 242 242 239 240 241 241 239 237 238 237 233 231 232 234 234 235 236 236 235 229 226 227 227 227 227 226 227 230 234 237 238 237 237 236 237 237 235 233 231 233 233 224 215 211 207 208 211 212 213 214 217 218 224 229 231 236 240 245 248 249 248 238 234 227 221 217 196 194 208 204 206 211 207 206 204 204
28 26 23 11 343 297 274 255 246 245 244 242 243 243 242 240 239 239 238 237 236 236 236 236 237 238 238 237 230 226 229 230 229 230 231 232 235 238 239 239 239 238 238 239 238 238 237 234 233 234 229 221 217 214 214 214 215 217 218 219 220 225 231 234 239 242 246 250 253 257 253 246 238 227 222 209 197 203 213 214 212 211 212 210 211
28 30 31 26 16 330 280 265 253 248 246 246 246 246 245 244 243 241 239 239 240 240 238 238 238 240 242 241 234 228 230 233 233 233 234 237 239 241 241 240 240 240 239 241 242 242 241 239 237 237 234 226 221 220 220 220 219 221 223 223 223 225 230 235 239 244 248 251 254 257 257 251 243 232 222 217 204 197 210 217 214 217 218 219 220
30 32 35 37 35 34 12 264 254 251 251 253 251 250 250 248 246 242 241 241 240 240 239 239 240 241 243 243 241 236 233 235 236 238 239 241 242 243 244 242 242 241 240 242 245 246 245 242 239 239 239 233 228 227 225 224 225 226 226 226 225 225 230 235 240 246 250 253 256 257 256 249 242 233 224 223 215 203 199 204 213 213 214 215 213
33 37 43 47 47 47 51 63 245 251 252 254 254 253 253 250 247 245 244 242 239 238 238 240 242 244 244 243 245 243 239 238 238 241 243 244 244 245 246 246 244 242 241 243 245 247 246 241 238 237 239 238 235 232 227 226 228 230 230 228 227 227 229 233 239 244 250 253 256 255 254 249 240 233 227 224 222 214 200 197 211 212 213 212 205
39 46 50 52 53 56 59 63 75 253 254 255 255 255 255 252 250 248 247 246 242 241 241 241 242 242 244 245 246 246 244 243 243 243 244 244 245 245 247 247 246 242 242 245 246 247 246 242 238 237 240 242 241 236 229 227 229 231 231 229 228 227 228 233 237 241 246 251 254 254 251 248 242 234 231 226 222 219 210 210 218 218 216 211 210
49 52 54 57 59 62 66 68 70 67 47 287 272 266 266 261 257 255 255 256 253 250 248 246 245 243 243 243 245 245 245 244 245 244 244 244 245 245 247 248 246 243 242 245 247 247 246 244 241 239 241 243 243 237 231 231 232 230 228 229 228 227 229 231 233 237 243 248 250 252 250 248 245 238 235 231 225 222 219 222 228 229 223 214 216
56 59 59 62 64 64 68 72 74 74 73 67 56 43 329 279 263 263 261 261 256 253 250 248 247 245 244 243 243 243 242 242 244 244 244 244 245 246 247 247 245 244 244 245 247 248 245 243 242 242 242 241 240 236 234 235 235 232 229 229 229 228 229 230 231 235 240 244 246 247 247 247 245 241 237 234 230 226 224 227 230 234 229 219 217
56 63 65 64 64 63 66 69 71 73 74 74 74 74 74 77 81 84 91 107 202 242 248 247 247 246 246 246 244 242 241 240 242 244 244 244 244 244 244 243 242 243 245 246 248 249 246 242 241 241 240 239 239 237 236 236 235 233 230 230 230 229 230 230 231 235 238 242 243 243 245 245 244 242 239 235 232 229 228 228 229 230 226 220 216
54 62 67 69 69 67 67 68 69 71 72 73 75 76 78 79 79 81 83 84 83 83 84 93 293 266 261 257 251 246 242 240 242 243 244 243 241 241 240 239 239 242 245 248 249 247 244 242 241 239 238 238 240 241 240 238 235 234 232 231 230 230 232 233 233 234 237 239 241 243 244 244 243 242 239 235 233 231 230 230 229 228 225 221 218
53 58 65 70 72 71 71 70 68 69 71 74 76 79 80 78 78 78 74 70 68 69 68 62 56 51 43 31 357 287 257 246 245 244 242 241 239 239 241 240 240 241 241 243 244 244 242 240 239 238 236 238 242 245 244 240 235 233 233 231 231 232 233 235 236 236 238 241 242 242 242 243 245 243 239 234 232 232 231 231 230 229 229 223 218
53 57 63 66 68 70 72 70 67 67 70 71 73 76 76 73 73 72 66 61 60 62 61 54 50 49 47 47 45 36 10 317 281 265 252 244 239 236 237 239 240 240 240 241 243 246 245 243 240 237 235 236 238 241 243 239 232 230 231 232 232 233 235 236 238 239 241 242 241 240 241 243 245 244 241 236 233 232 231 231 231 231 231 224 218
54 57 60 62 63 67 69 68 67 69 69 68 69 71 71 69 68 67 64 60 59 60 60 55 50 47 44 44 45 43 35 25 12 356 333 294 266 251 243 239 239 239 242 246 246 246 245 244 241 237 235 234 235 236 236 232 226 225 230 236 237 236 236 237 239 241 241 242 241 240 241 242 243 244 244 241 237 234 232 230 231 231 231 226 221
52 55 59 61 64 67 68 68 69 70 71 71 74 75 74 73 71 69 65 62 58 57 59 58 56 54 48 43 38 34 30 24 17 12 7 1 347 322 293 270 255 246 243 243 243 241 241 241 240 237 235 235 236 237 230 222 216 218 225 242 251 247 244 242 241 242 241 241 241 240 241 241 242 244 245 244 241 238 235 232 231 230 231 229 226
53 56 60 62 65 66 67 69 71 72 73 75 78 79 80 81 80 77 74 71 66 63 63 61 58 56 52 47 43 35 27 21 13 6 4 5 3 356 346 327 300 276 260 251 246 244 243 242 241 240 238 234 234 236 231 225 217 213 219 248 259 259 257 250 245 242 239 240 241 241 242 241 243 244 245 246 244 242 239 235 232 231 232 231 229
53 54 57 60 62 65 68 71 73 75 77 80 83 86 88 88 87 85 84 81 76 72 68 61 58 58 56 53 48 42 36 30 22 12 6 4 2 357 354 348 339 323 299 279 267 260 254 250 247 244 240 234 233 235 235 230 221 213 210 227 208 253 267 256 250 247 240 238 240 241 242 243 243 243 243 244 244 244 243 239 236 233 234 233 231
52 52 54 58 61 66 70 74 77 78 79 83 88 93 93 91 90 86 81 76 68 61 56 52 53 55 55 54 52 49 46 42 35 27 19 10 5 359 353 348 346 343 334 317 295 282 273 266 260 253 246 241 240 241 240 233 226 224 220 208 170 235 248 259 277 261 242 235 238 239 240 243 244 244 244 245 245 245 244 243 241 237 236 235 233
55 56 59 62 64 66 70 74 77 79 80 82 86 91 89 84 82 76 68 62 55 50 48 48 49 50 50 52 53 50 49 48 44 38 33 27 19 9 359 352 349 346 343 339 324 304 290 281 275 267 259 254 250 247 245 241 235 231 227 227 236 239 254 278 275 292 257 236 235 237 238 240 243 245 246 248 248 246 245 244 243 241 238 238 236
60 64 66 66 66 66 68 72 75 78 81 83 86 87 86 82 79 76 69 64 58 52 53 55 54 52 53 54 55 52 47 44 40 34 32 31 30 26 17 7 359 354 349 344 339 328 310 296 286 277 271 265 256 250 250 250 244 237 233 234 238 246 263 272 239 274 304 255 237 236 237 239 241 244 247 248 249 247 246 244 244 243 241 239 239
66 69 70 68 68 67 68 71 74 77 81 86 88 87 86 84 80 78 73 68 63 58 58 58 55 53 52 52 54 56 52 46 38 29 23 21 23 26 26 21 14 6 0 354 347 340 328 314 302 291 284 275 263 256 253 253 250 247 244 241 242 247 256 261 261 264 280 287 259 241 238 239 241 243 246 247 247 247 246 245 243 243 242 241 240
69 71 73 74 74 72 72 73 73 74 79 84 87 86 85 84 81 78 74 70 69 66 63 60 57 54 50 47 47 50 50 47 41 33 27 23 19 16 16 18 16 11 4 358 352 346 340 330 321 312 304 294 282 270 262 258 256 256 255 251 249 251 254 258 262 265 264 265 273 254 240 240 240 242 243 245 246 246 246 246 246 245 244 243 242
73 75 76 77 78 77 76 76 73 73 76 80 82 82 81 80 77 75 72 69 67 65 63 60 57 55 53 49 46 45 45 44 41 36 32 28 23 17 12 7 3 1 357 353 349 344 341 336 329 323 316 310 302 291 280 272 266 262 260 259 257 255 256 258 258 260 262 256 253 260 249 237 237 245 246 245 246 245 244 245 245 246 245 244 243
78 79 78 77 78 79 79 78 76 75 76 77 80 79 78 77 74 72 69 66 63 61 59 56 53 53 52 49 48 47 46 45 43 40 37 32 29 23 16 7 355 350 348 345 342 336 333 330 327 324 320 316 312 306 298 289 280 273 267 263 261 258 256 255 254 254 253 250 255 265 257 247 243 249 251 250 248 245 244 244 243 244 244 243 243